Flag for U.S.A. Weather past 2 weeks in Kailua-Kona, Hawaii, U.S.A.

Now
84 °F

Passing clouds.


Feels Like: 92 °F
Forecast: 75 / 82 °F
Wind: 9 mph from West

Location: Keahole Airport

Current Time: Sep 21, 2014 at 7:21:36 PM

Latest Report: Sep 21, 2014 at 6:53 PM


Visibility: 10 mi

Pressure: 29.95 "Hg

Humidity: 74%

Dew point: 75 °F

Location of Kailua-KonaLocation

Historic Weather in Kailua-Kona — Graph

°F

Kailua-Kona temperature yesterday

Maximum temperature yesterday: 88 °F (at 1:53 PM)
Minimum temperature yesterday: 79 °F (at 2:53 AM)
Average temperature yesterday: 84 °F

Past Weeks' High & Low Weather Summary

 TemperatureHumidityPressure
High88 °F (Sep 10, 12:53 PM)91% (Sep 18, 1:53 AM)30.00 "Hg (Sep 18, 1:53 AM)
Low75 °F (Sep 11, 4:53 AM)51% (Sep 9, 8:53 AM)29.85 "Hg (Sep 15, 3:53 PM)
Average82 °F69%29.93 "Hg
* Reported Sep 6 5:53 PM — Sep 21 5:53 PM, Kailua-Kona, Weather by CustomWeather, © 2014

Note: Actual official high and low records may vary slightly from our data, if they occured in-between our weather recording intervals... More about our weather records

Advertising

Kailua-Kona weather history for previous 24 hours

 ConditionsComfort  
Time TempWeatherWind HumidityBarometerVisibility
5:53 PM
Sep 21
84 °FScattered clouds.9 mph74%29.93 "Hg10 mi
4:53 PM86 °FScattered clouds.8 mph70%29.90 "Hg10 mi
4:25 PM84 °FScattered clouds.9 mph74%29.91 "Hg10 mi
4:18 PM86 °FPartly sunny.9 mph70%29.90 "Hg10 mi
3:53 PM87 °FScattered clouds.9 mph69%29.90 "Hg10 mi
2:59 PM88 °FScattered clouds.12 mph66%29.90 "Hg10 mi
1:53 PM87 °FPassing clouds.10 mph69%29.91 "Hg10 mi
12:53 PM87 °FScattered clouds.9 mph69%29.93 "Hg10 mi
11:53 AM86 °FScattered clouds.10 mph72%29.95 "Hg10 mi
10:53 AM87 °FSunny.9 mph67%29.96 "Hg10 mi
9:53 AM85 °FSunny.10 mph72%29.98 "Hg10 mi
8:53 AM84 °FScattered clouds.8 mph72%29.98 "Hg10 mi
7:53 AM83 °FSunny.No wind72%29.95 "Hg10 mi
6:53 AM80 °FSunny.5 mph74%29.94 "Hg10 mi
5:53 AM79 °FClear.5 mph79%29.93 "Hg10 mi
4:53 AM80 °FClear.6 mph74%29.91 "Hg10 mi
3:53 AM80 °FClear.5 mph74%29.90 "Hg10 mi
2:53 AM80 °FPassing clouds.12 mph79%29.90 "Hg10 mi
1:53 AM82 °FOvercast.8 mph77%29.91 "Hg10 mi
12:53 AM81 °FOvercast.7 mph79%29.93 "Hg10 mi
11:53 PM
Sep 20
81 °FPassing clouds.3 mph79%29.94 "Hg10 mi
10:53 PM82 °FPassing clouds.No wind79%29.95 "Hg10 mi
9:53 PM82 °FOvercast.3 mph79%29.95 "Hg10 mi
8:53 PM83 °FClear.7 mph74%29.94 "Hg10 mi
7:53 PM83 °FPassing clouds.7 mph74%29.92 "Hg10 mi
Weather by CustomWeather, © 2014

See weather overviewHow to use our weather pages